Regional Weather Roundup
Issued by NWS

Home | Current Version | Previous Version | Graphics & Text | Print | Product List | Glossary Off
Versions: 1 2 3 4 5 6 7 8 9 10 11 12 13 14 15 16 17 18 19 20 21 22 23 24 25 26 27 28 29 30 31 32 33 34 35 36 37 38 39 40 41 42 43 44 45 46 47 48 49 50

000
ASUS43 KTOP 211359
RWRKS

WEATHER ROUNDUP FOR KANSAS
NATIONAL WEATHER SERVICE GOODLAND KS
900 AM CDT THU AUG 21 2014

NOTE:  "FAIR" INDICATES FEW OR NO CLOUDS BELOW 12,000 FEET WITH NO
SIGNIFICANT WEATHER AND/OR OBSTRUCTIONS TO VISIBILITY.

KSZ001>006-013>018-027>032-041>047-211500-
NORTHWEST KANSAS

CITY           SKY/WX    TMP DP  RH WIND       PRES   REMARKS
GOODLAND       MOSUNNY   70  60  70 NW10      29.97R
HAYS           SUNNY     82  64  54 SW17G25   29.85S
HILL CITY      PTSUNNY   77  65  66 NW3       29.85R
RUSSELL        SUNNY     82  64  54 S15       29.84R
$$

KSZ061>065-074>080-084>089-211500-
SOUTHWEST KANSAS

CITY           SKY/WX    TMP DP  RH WIND       PRES   REMARKS
DODGE CITY     SUNNY    N/A N/A N/A S17G24    29.91R
ELKHART          N/A     76  60  57 W12         N/A
GARDEN CITY    MOSUNNY   78  64  61 SW8       29.91R
GREAT BEND     SUNNY     81  63  54 S21       29.87R
LIBERAL        SUNNY     81  63  54 SW23      29.94R
$$

KSZ066>073-081>083-090>101-211500-
SOUTHEAST KANSAS

CITY           SKY/WX    TMP DP  RH WIND       PRES   REMARKS
CHANUTE        SUNNY     82  70  66 S21G26    29.96R
COFFEYVILLE    SUNNY     81  72  74 S17G23    29.96S
HUTCHINSON     SUNNY     82  65  56 S15G23    29.89S
NEWTON         SUNNY     81  64  57 S17G24    29.95R
PARSONS        SUNNY     82  71  69 S13G18    29.98R
WICHITA INTL   MOSUNNY   82  68  62 S16       29.92R
WICHITA JABRA  SUNNY     80  69  69 S16G25    29.92R
WINFIELD       SUNNY     82  70  66 S17G28    29.94S
$$

KSZ007>012-019>026-033>040-048>060-102>105-211500-
NORTHEAST KANSAS

CITY           SKY/WX    TMP DP  RH WIND       PRES   REMARKS
CONCORDIA      MOSUNNY   79  68  69 VRB6      29.87R
EMPORIA        SUNNY     80  70  71 S20       29.92R
LAWRENCE       SUNNY     84  70  62 S13       29.90S
MANHATTAN      SUNNY     84  68  58 SW17G23   29.86R
OLATHE IND     SUNNY     81  71  71 S14G24    29.93S
OLATHE EXE     SUNNY     79  71  76 S13G25    29.93R
SALINA         SUNNY     82  67  60 S17G26    29.85S
TOPEKA BILLARD MOSUNNY   82  71  69 S15G25    29.89R
TOPEKA FORBES  SUNNY     81  70  69 S17G26    29.89S
$$



USA.gov is the U.S. government's official web portal to all federal, state and local government web resources and services.